DW8004 Weather Reports


time (UTC)temp
C
wind
direction
speed
KPH
gust
KPH
rain 1hr
cm
rain 24hr
cm
rain mn
cm
humidity
%
barometer
mb
20260831131543 18 150 0.0 0.0 0.00 0.00 0.00 81 1019.7
20260831130047 17 150 0.0 0.0 0.00 0.00 0.00 86 1019.8
20260831124534 17 150 0.0 0.0 0.00 0.00 0.00 87 1019.9
20260831123044 17 150 0.0 0.0 0.00 0.00 0.00 87 1019.9
20260831121537 16 150 0.0 0.0 0.00 0.00 0.00 91 1019.8
20260831120050 15 150 0.0 0.0 0.00 0.00 0.00 95 1019.8
20260831114548 13 150 0.0 0.0 0.00 0.00 0.00 97 1019.7
20260831113032 11 150 0.0 0.0 0.00 0.00 0.00 97 1019.6
20260831111605 11 150 0.0 0.0 0.00 0.00 0.00 97 1019.3
20260831110038 11 150 0.0 0.0 0.00 0.00 0.00 97 1019.1
20260831104548 11 150 0.0 0.0 0.00 0.00 0.00 97 1019.0
20260831103040 11 150 0.0 0.0 0.00 0.00 0.00 96 1019.0
20260831101555 11 150 0.0 0.0 0.00 0.00 0.00 96 1018.9
20260831100053 11 150 0.0 0.0 0.00 0.00 0.00 96 1018.8
20260831094538 11 150 0.0 0.0 0.00 0.00 0.00 96 1018.8
20260831093029 11 150 0.0 0.0 0.00 0.00 0.00 96 1018.7
20260831091603 12 150 0.0 0.0 0.00 0.00 0.00 96 1018.5
20260831090131 12 150 0.0 0.0 0.00 0.00 0.00 96 1018.4
20260831084559 12 150 0.0 0.0 0.00 0.00 0.00 95 1018.5
20260831083047 12 150 0.0 0.0 0.00 0.00 0.00 95 1018.4
20260831081628 12 150 0.0 0.0 0.00 0.00 0.00 96 1018.1
20260831080031 13 150 0.0 0.0 0.00 0.00 0.00 96 1018.1
20260831074544 13 150 0.0 0.0 0.00 0.00 0.00 96 1017.9
20260831073100 13 150 0.0 0.0 0.00 0.00 0.00 96 1018.0
20260831071502 13 150 0.0 0.0 0.00 0.00 0.00 96 1018.0
20260831070107 13 150 0.0 0.0 0.00 0.00 0.00 96 1017.9
20260831064609 13 150 0.0 0.0 0.00 0.00 0.00 95 1017.8
20260831063057 13 150 0.0 0.0 0.00 0.00 0.00 95 1017.6
20260831061540 13 150 0.0 0.0 0.00 0.00 0.00 95 1017.6
20260831060041 13 150 0.0 0.0 0.00 0.00 0.00 95 1017.7
20260831054528 14 162 0.0 0.0 0.00 0.00 0.00 94 1017.6
20260831053036 14 162 0.0 0.0 0.00 0.00 0.00 94 1017.5
20260831051510 14 201 0.0 0.0 0.00 0.00 0.00 94 1017.4
20260831050036 15 201 0.0 0.0 0.00 0.00 0.00 94 1017.4
20260831044532 15 204 0.0 0.0 0.00 0.00 0.00 94 1017.2
20260831043044 15 204 0.0 0.0 0.00 0.00 0.00 93 1017.2
20260831041529 15 205 0.0 0.0 0.00 0.00 0.00 93 1017.2
20260831040038 16 242 0.0 0.0 0.00 0.00 0.00 92 1017.3
20260831034634 16 242 0.0 0.0 0.00 0.00 0.00 91 1017.3
20260831033103 16 264 0.0 0.0 0.00 0.00 0.00 91 1017.5
20260831031522 16 86 0.0 0.0 0.00 0.00 0.00 91 1017.7
20260831030132 16 84 0.0 0.0 0.00 0.00 0.00 91 1018.0
20260831024607 16 84 0.0 0.0 0.00 0.00 0.00 90 1017.9
20260831023108 16 84 0.0 0.0 0.00 0.00 0.00 90 1017.9
20260831021552 16 84 0.0 0.0 0.00 0.00 0.00 89 1017.4
20260831020050 17 221 0.0 0.0 0.00 0.00 0.00 89 1017.4
20260831014547 17 360 0.0 0.0 0.00 0.00 0.00 89 1017.3
20260831013039 17 237 0.0 0.0 0.00 0.00 0.00 88 1017.4
20260831011540 17 234 0.0 0.0 0.00 0.00 0.00 88 1017.4
20260831010130 17 196 0.0 0.0 0.00 0.00 0.00 88 1017.2
20260831004558 17 105 0.0 0.0 0.00 0.00 0.00 88 1017.0
20260831003045 17 211 0.0 0.0 0.00 0.00 0.00 88 1016.5
20260831001518 17 278 0.0 0.0 0.00 0.00 0.00 89 1016.1
20260831000023 17 223 0.0 0.0 0.00 0.00 0.00 89 1015.9
20260830234530 17 231 0.0 0.0 0.00 0.00 0.00 88 1015.6
20260830233004 17 244 0.0 0.0 0.00 0.00 0.00 86 1015.9
20260830231549 18 209 0.0 0.0 0.00 0.00 0.00 86 1016.1
20260830230030 18 229 0.0 0.0 0.00 0.00 0.00 84 1016.0
20260830224632 18 269 0.0 0.0 0.00 0.00 0.00 84 1016.2
20260830223104 19 229 0.0 0.0 0.00 0.00 0.00 85 1016.0
20260830221551 19 227 0.0 0.0 0.00 0.00 0.00 84 1016.1
20260830220053 20 227 0.0 0.0 0.00 0.00 0.00 83 1016.0
20260830214504 20 210 0.0 0.0 0.00 0.00 0.00 83 1015.9
20260830213030 20 192 0.0 0.0 0.00 0.00 0.00 81 1015.9
20260830211634 20 248 0.0 0.0 0.00 0.00 0.00 79 1015.9
20260830210046 21 229 0.0 0.0 0.00 0.00 0.00 79 1016.0
20260830204523 21 244 0.0 0.0 0.00 0.00 0.00 77 1016.2
20260830203034 21 232 0.0 0.0 0.00 0.00 0.00 77 1016.2
20260830201512 21 247 0.0 0.0 0.00 0.00 0.00 78 1016.3
20260830194516 20 232 0.0 0.0 0.00 0.00 0.00 79 1016.6
20260830193037 21 213 0.0 0.0 0.00 0.00 0.00 77 1016.6
20260830191619 21 232 0.0 0.0 0.00 0.00 0.00 76 1016.9
20260830190052 22 249 0.0 0.0 0.00 0.00 0.00 72 1016.8
20260830184513 22 216 0.0 0.0 0.00 0.00 0.00 70 1017.0
20260830183052 22 238 0.0 0.0 0.00 0.00 0.00 69 1017.1
20260830181548 22 315 0.0 0.0 0.00 0.00 0.00 70 1017.4
20260830180043 21 17 0.0 0.0 0.00 0.00 0.00 70 1017.4
20260830174529 21 238 0.0 0.0 0.00 0.00 0.00 72 1017.6
20260830173058 21 187 0.0 0.0 0.00 0.00 0.00 69 1017.9
20260830171549 21 235 0.0 0.0 0.00 0.00 0.00 67 1018.1
20260830170040 21 261 0.0 0.0 0.00 0.00 0.00 74 1018.0
20260830164534 21 236 0.0 0.0 0.00 0.00 0.00 74 1018.2
20260830163013 21 250 0.0 0.0 0.00 0.00 0.00 69 1018.3
20260830161603 21 136 0.0 0.0 0.00 0.00 0.00 71 1018.4
20260830160043 21 232 0.0 0.0 0.00 0.00 0.00 72 1018.6
20260830154539 20 234 0.0 0.0 0.00 0.00 0.00 72 1018.9
20260830153002 20 247 0.0 0.0 0.00 0.00 0.00 75 1019.1
20260830151608 18 247 0.0 0.0 0.00 0.00 0.00 76 1019.3
20260830150046 18 209 0.0 0.0 0.00 0.00 0.00 79 1019.4
20260830144543 17 215 0.0 0.0 0.00 0.00 0.00 84 1019.3
20260830143028 17 95 0.0 0.0 0.00 0.00 0.00 86 1019.3
20260830141607 18 95 0.0 0.0 0.00 0.00 0.00 85 1019.5
20260830134549 18 95 0.0 0.0 0.00 0.00 0.00 78 1019.5
20260830133022 18 93 0.0 0.0 0.00 0.00 0.00 80 1019.6